{"data":{"norad_id":67402,"epoch":"2026-09-20T12:26:54.413376Z","epoch_age_seconds":98466,"freshness":"FRESH","line1":"1 67402U 26004AR  26263.51868534  .00005048  00000+0  24791-3 0  9992","line2":"2 67402  97.4635 261.0336 0003803  34.0900 326.0578 15.18510063 38198","mean_motion":15.18510063,"eccentricity":0.0003803,"inclination_deg":97.4635,"raan_deg":261.0336,"arg_perigee_deg":34.09,"mean_anomaly_deg":326.0578,"bstar":0.00024791,"rev_number":3819,"period_min":94.829796330431,"perigee_km":507.72315225084,"apogee_km":512.962530018,"semimajor_km":6888.4798411344,"source":"CELESTRAK","updated_at":"2026-09-21T09:00:16.622060Z"}}